Вернуться в каталог

FENGYUN 1C DEB

LostSSO
NORAD 31904·DEBRIS·🇨🇳 China

Запущен May 10, 1999 с Taiyuan Satellite Launch Center

Loading…

Ближайшие Пролёты (ближайшие 24 часа)

TLE

УстаревшееSource: Space-Track

Эпоха: Jul 18, 2019, 06:15 UTC

1 31904U 99025CLF 19199.26083448  .00001435  00000-0  10131-2 0  9997
2 31904  98.9226   5.0139 0182783  86.4909 275.7137 13.91736400611440

Отслеживайте FENGYUN 1C DEB в реальном времени с AllMySat

Download on the App Store